CW3175 Weather Reports


time (UTC)temp
F
wind
direction
speed
knots
gust
knots
rain 1hr
in
rain 24hr
in
rain mn
in
humidity
%
barometer
mb
20140421064552 66 193 0.9 9.6 0.00 0.00 0.00 38 1014.1
20140421063033 66 232 0.0 4.3 0.00 0.00 0.00 38 1014.2
20140421061528 66 195 0.9 6.1 0.00 0.00 0.00 37 1014.3
20140421055948 67 198 1.7 8.7 0.00 0.00 0.00 37 1014.4
20140421054449 67 225 1.7 7.8 0.00 0.00 0.00 36 1014.3
20140421052949 67 228 1.7 8.7 0.00 0.00 0.00 36 1014.4
20140421051446 67 189 2.6 7.8 0.00 0.00 0.00 35 1014.4
20140421045947 67 195 2.6 8.7 0.00 0.00 0.00 34 1014.3
20140421044441 67 209 1.7 7.0 0.00 0.00 0.00 34 1014.4
20140421042940 67 186 3.5 10.4 0.00 0.00 0.00 32 1014.4
20140421041438 68 164 4.3 8.7 0.00 0.00 0.00 31 1014.3
20140421035938 68 152 3.5 9.6 0.00 0.00 0.00 30 1014.4
20140421034433 69 169 3.5 10.4 0.00 0.00 0.00 29 1014.5
20140421032931 69 155 4.3 9.6 0.00 0.00 0.00 29 1014.8
20140421031429 69 196 4.3 9.6 0.00 0.00 0.00 30 1014.9
20140421025927 69 173 3.5 9.6 0.00 0.00 0.00 31 1015.0
20140421024425 68 175 3.5 8.7 0.00 0.00 0.00 33 1015.2
20140421022925 63 53 0.0 0.0 0.00 0.00 0.00 44 1015.5
20140421021415 62 53 0.0 0.9 0.00 0.00 0.00 46 1015.6
20140421015843 62 53 0.0 0.0 0.00 0.00 0.00 46 1015.6
20140421014339 62 53 0.0 0.0 0.00 0.00 0.00 45 1015.7
20140421012827 62 53 0.0 0.0 0.00 0.00 0.00 46 1015.7
20140421011315 62 53 0.0 0.9 0.00 0.00 0.00 46 1015.8
20140421005745 62 53 0.0 0.9 0.00 0.00 0.00 46 1015.7
20140421004245 62 53 0.0 0.9 0.00 0.00 0.00 46 1015.8
20140421002744 62 53 0.0 1.7 0.00 0.00 0.00 45 1015.9
20140421001236 63 53 0.0 3.5 0.00 0.00 0.00 45 1016.1
20140420235721 64 53 0.9 5.2 0.00 0.00 0.00 42 1016.2
20140420234211 67 46 1.7 6.1 0.00 0.00 0.00 37 1016.0
20140420232658 71 103 0.0 3.5 0.00 0.00 0.00 31 1016.0
20140420231146 71 104 0.9 4.3 0.00 0.00 0.00 30 1016.2
20140420225645 74 109 0.9 7.0 0.00 0.00 0.00 27 1016.2
20140420224142 76 169 1.7 7.8 0.00 0.00 0.00 24 1016.2
20140420222642 77 112 0.9 6.1 0.00 0.00 0.00 25 1016.2
20140420221141 79 214 1.7 11.3 0.00 0.00 0.00 22 1016.4
20140420215642 78 182 4.3 13.9 0.00 0.00 0.00 23 1016.3
20140420214143 78 190 4.3 11.3 0.00 0.00 0.00 23 1016.4
20140420212639 78 148 3.5 12.2 0.00 0.00 0.00 23 1016.6
20140420211139 78 178 2.6 12.2 0.00 0.00 0.00 23 1016.7
20140420205639 77 156 2.6 11.3 0.00 0.00 0.00 24 1017.0
20140420204141 78 106 2.6 12.2 0.00 0.00 0.00 24 1017.0
20140420202640 79 194 1.7 8.7 0.00 0.00 0.00 22 1017.1
20140420201139 78 148 3.5 9.6 0.00 0.00 0.00 23 1017.4
20140420195639 79 155 2.6 9.6 0.00 0.00 0.00 23 1017.5
20140420194139 77 258 3.5 12.2 0.00 0.00 0.00 24 1017.8
20140420192640 76 190 4.3 11.3 0.00 0.00 0.00 24 1018.1
20140420191138 77 232 2.6 8.7 0.00 0.00 0.00 24 1018.3
20140420185638 76 281 1.7 9.6 0.00 0.00 0.00 25 1018.6
20140420184136 75 163 4.3 13.0 0.00 0.00 0.00 25 1018.7
20140420182633 75 232 3.5 17.4 0.00 0.00 0.00 24 1019.0
20140420181132 74 234 4.3 13.0 0.00 0.00 0.00 25 1019.1
20140420175634 74 227 3.5 11.3 0.00 0.00 0.00 25 1019.2
20140420174134 73 192 3.5 9.6 0.00 0.00 0.00 25 1019.4
20140420172632 72 182 5.2 12.2 0.00 0.00 0.00 25 1019.7
20140420171132 72 167 4.3 10.4 0.00 0.00 0.00 26 1019.8
20140420165628 71 115 3.5 9.6 0.00 0.00 0.00 27 1019.9
20140420164126 70 217 3.5 9.6 0.00 0.00 0.00 28 1020.4
20140420162626 69 225 5.2 13.0 0.00 0.00 0.00 27 1020.6
20140420161115 68 196 5.2 13.0 0.00 0.00 0.00 27 1020.7
20140420155615 67 183 3.5 13.0 0.00 0.00 0.00 28 1020.8
20140420154116 66 200 4.3 13.0 0.00 0.00 0.00 29 1020.8
20140420152614 65 184 4.3 10.4 0.00 0.00 0.00 30 1021.0
20140420151113 64 176 4.3 9.6 0.00 0.00 0.00 30 1021.0
20140420145613 63 236 3.5 9.6 0.00 0.00 0.00 31 1021.4
20140420144112 61 184 5.2 11.3 0.00 0.00 0.00 32 1021.3
20140420142613 60 205 3.5 11.3 0.00 0.00 0.00 33 1021.3
20140420141113 58 224 5.2 11.3 0.00 0.00 0.00 35 1021.8
20140420135610 57 168 3.5 10.4 0.00 0.00 0.00 36 1021.9
20140420134110 56 186 4.3 9.6 0.00 0.00 0.00 37 1022.2
20140420132608 55 184 6.1 13.0 0.00 0.00 0.00 38 1022.4
20140420131106 54 153 3.5 10.4 0.00 0.00 0.00 38 1022.4
20140420125603 53 203 2.6 7.8 0.00 0.00 0.00 39 1022.5
20140420124042 51 190 0.9 4.3 0.00 0.00 0.00 40 1022.6
20140420122539 50 187 2.6 6.1 0.00 0.00 0.00 40 1022.6
20140420121039 49 192 1.7 5.2 0.00 0.00 0.00 40 1022.6
20140420115527 48 180 0.9 4.3 0.00 0.00 0.00 41 1022.6
20140420114027 47 188 1.7 8.7 0.00 0.00 0.00 41 1022.5
20140420112522 47 186 0.9 6.1 0.00 0.00 0.00 41 1022.1
20140420111023 47 178 1.7 5.2 0.00 0.00 0.00 41 1022.1
20140420105506 47 189 0.9 4.3 0.00 0.00 0.00 41 1022.0
20140420103957 48 198 1.7 7.8 0.00 0.00 0.00 40 1021.9
20140420102457 48 159 1.7 7.8 0.00 0.00 0.00 40 1021.8
20140420100942 49 156 1.7 8.7 0.00 0.00 0.00 40 1021.7
20140420095442 49 182 1.7 6.1 0.00 0.00 0.00 40 1021.6
20140420093938 49 157 3.5 7.8 0.00 0.00 0.00 40 1021.8
20140420092437 49 166 3.5 8.7 0.00 0.00 0.00 40 1021.6
20140420090932 49 152 4.3 10.4 0.00 0.00 0.00 40 1021.8
20140420083930 50 155 0.9 5.2 0.00 0.00 0.00 43 1022.4
20140420082428 51 164 0.0 1.7 0.00 0.00 0.00 43 1022.3
20140420080920 51 165 0.9 5.2 0.00 0.00 0.00 42 1022.3
20140420075404 51 157 0.9 5.2 0.00 0.00 0.00 41 1022.3
20140420073855 52 138 1.7 6.1 0.00 0.00 0.00 40 1022.3
20140420072354 52 174 0.9 8.7 0.00 0.00 0.00 40 1022.4